AWC2436 ZSNJ-VHHH

Flight info

Callsign AWC2436
Flight time 2h 2m
Altitude 38100
Route HFE W50 IDUKI V169 EMRAL/K0856S1130 W105 NCH/K0861S1160 W19 PULES/K0857S1130 W19 RUNEK/K0857S1160 W19 NOMAR W18 NLG W23 ZUH/K0854S1130 R473 SIERA
Aircraft A21N/M-SDE2E3FGHIJ1RWXY/LB1

Departure

Time 2026-05-04 09:42
Airport Nanjing Lukou International Airport (ZSNJ)

Arrival

Time 2026-05-04 11:45
Airport Hong Kong International Airport (VHHH)
Time Latitude Longitude Altitude Speed Heading
2026-05-04 09:21 31.73883 118.86549 57 ft 0 kts 58°
2026-05-04 09:34 31.73884 118.86551 57 ft 0 kts 58°
2026-05-04 09:34 31.73891 118.86563 57 ft 2 kts 58°
2026-05-04 09:35 31.73904 118.86584 57 ft 4 kts 47°
2026-05-04 09:35 31.73933 118.86594 57 ft 5 kts 352°
2026-05-04 09:35 31.73972 118.86571 57 ft 7 kts 328°
2026-05-04 09:35 31.74018 118.86538 57 ft 8 kts 328°
2026-05-04 09:37 31.74313 118.86922 57 ft 7 kts 357°
2026-05-04 09:37 31.74367 118.86904 57 ft 8 kts
2026-05-04 09:38 31.74413 118.86960 57 ft 10 kts 58°
2026-05-04 09:38 31.74454 118.87036 57 ft 11 kts 58°
2026-05-04 09:38 31.74499 118.87122 57 ft 12 kts 58°
2026-05-04 09:38 31.74547 118.87214 57 ft 13 kts 58°
2026-05-04 09:39 31.74599 118.87312 57 ft 14 kts 58°
2026-05-04 09:39 31.74655 118.87415 57 ft 15 kts 57°
2026-05-04 09:39 31.74712 118.87522 57 ft 15 kts 58°
2026-05-04 09:39 31.74770 118.87633 57 ft 16 kts 58°
2026-05-04 09:40 31.74833 118.87746 57 ft 16 kts 58°
2026-05-04 09:40 31.74883 118.87843 57 ft 13 kts 58°
2026-05-04 09:40 31.74934 118.87891 57 ft 9 kts 357°
2026-05-04 09:40 31.74997 118.87856 57 ft 10 kts 327°
2026-05-04 09:41 31.75054 118.87794 57 ft 11 kts 285°
2026-05-04 09:42 31.71714 118.81499 3291 ft 194 kts 237°
2026-05-04 09:43 31.70957 118.80092 3889 ft 215 kts 238°
2026-05-04 09:43 31.70125 118.78540 4530 ft 237 kts 238°
2026-05-04 09:43 31.69236 118.76880 5441 ft 247 kts 239°
2026-05-04 09:43 31.68331 118.75185 6494 ft 250 kts 241°
2026-05-04 09:44 31.67658 118.73332 7485 ft 252 kts 259°
2026-05-04 09:44 31.67464 118.71323 8461 ft 253 kts 271°
2026-05-04 09:44 31.67436 118.69260 9486 ft 255 kts 273°
2026-05-04 09:46 31.67258 118.53502 14778 ft 327 kts 271°
2026-05-04 09:46 31.67214 118.50774 15220 ft 345 kts 271°
2026-05-04 09:46 31.67169 118.47858 15664 ft 362 kts 271°
2026-05-04 09:47 31.67125 118.44891 16363 ft 370 kts 271°
2026-05-04 09:47 31.67078 118.41904 17214 ft 372 kts 271°
2026-05-04 09:49 31.66715 118.20115 22407 ft 394 kts 270°
2026-05-04 09:49 31.66575 118.16876 22848 ft 403 kts 267°
2026-05-04 09:49 31.66297 118.13601 23429 ft 407 kts 265°
2026-05-04 09:51 31.64383 117.93615 26932 ft 413 kts 264°
2026-05-04 09:51 31.64061 117.90287 27658 ft 409 kts 264°
2026-05-04 09:51 31.63746 117.87045 28395 ft 404 kts 264°
2026-05-04 09:51 31.63430 117.83798 29146 ft 398 kts 264°
2026-05-04 09:52 31.63117 117.80606 29863 ft 393 kts 264°
2026-05-04 09:52 31.62807 117.77457 30481 ft 389 kts 263°
2026-05-04 09:52 31.62498 117.74308 30926 ft 389 kts 263°
2026-05-04 09:52 31.62188 117.71166 31199 ft 393 kts 264°
2026-05-04 09:53 31.61901 117.67963 31587 ft 394 kts 266°
2026-05-04 09:53 31.61869 117.64767 32045 ft 393 kts 271°
2026-05-04 09:53 31.62120 117.61588 32521 ft 391 kts 276°
2026-05-04 09:53 31.62637 117.58490 33017 ft 390 kts 281°
2026-05-04 09:54 31.63414 117.55472 33437 ft 390 kts 285°
2026-05-04 09:54 31.64460 117.52528 33795 ft 392 kts 290°
2026-05-04 09:54 31.65773 117.49698 34151 ft 395 kts 296°
2026-05-04 09:54 31.67303 117.47011 34489 ft 395 kts 298°
2026-05-04 09:55 31.68869 117.44390 34886 ft 393 kts 299°
2026-05-04 09:55 31.70444 117.41788 35178 ft 392 kts 298°
2026-05-04 09:55 31.71803 117.39055 35471 ft 385 kts 290°
2026-05-04 09:55 31.72733 117.36137 35808 ft 380 kts 283°
2026-05-04 09:56 31.73262 117.33081 36118 ft 377 kts 275°
2026-05-04 09:56 31.73383 117.30015 36422 ft 375 kts 267°
2026-05-04 09:56 31.73096 117.26958 36690 ft 376 kts 260°
2026-05-04 09:56 31.72411 117.23981 36905 ft 380 kts 253°
2026-05-04 09:57 31.71348 117.21171 37084 ft 385 kts 245°
2026-05-04 09:57 31.69870 117.18487 37295 ft 390 kts 239°
2026-05-04 09:57 31.68305 117.15946 37520 ft 390 kts 239°
2026-05-04 09:57 31.66700 117.13367 37703 ft 391 kts 239°
2026-05-04 09:58 31.65078 117.10796 37870 ft 393 kts 239°
2026-05-04 09:58 31.63438 117.08220 38040 ft 394 kts 239°
2026-05-04 09:58 31.61784 117.05628 38089 ft 395 kts 239°
2026-05-04 10:00 31.48336 116.85273 38105 ft 394 kts 238°
2026-05-04 10:04 31.25074 116.49765 38162 ft 393 kts 239°
2026-05-04 10:04 31.21747 116.44708 38175 ft 392 kts 239°
2026-05-04 10:05 31.18435 116.39678 38190 ft 391 kts 239°
2026-05-04 10:05 31.15098 116.34620 38191 ft 392 kts 238°
2026-05-04 10:06 31.11482 116.29828 38186 ft 395 kts 232°
2026-05-04 10:06 31.07403 116.25568 38194 ft 394 kts 227°
2026-05-04 10:08 30.92894 116.15723 38192 ft 406 kts 217°
2026-05-04 10:08 30.90378 116.14239 38187 ft 406 kts 216°
2026-05-04 10:08 30.85291 116.11251 38186 ft 406 kts 216°
2026-05-04 10:09 30.80141 116.08489 38167 ft 412 kts 211°
2026-05-04 10:09 30.74598 116.06461 38165 ft 423 kts 204°
2026-05-04 10:10 30.68714 116.05281 38161 ft 435 kts 197°
2026-05-04 10:10 30.62547 116.05004 38166 ft 443 kts 192°
2026-05-04 10:11 30.56396 116.05009 38148 ft 443 kts 192°
2026-05-04 10:11 30.50193 116.05006 38148 ft 444 kts 191°
2026-05-04 10:12 30.44033 116.05005 38147 ft 443 kts 192°
2026-05-04 10:12 30.37854 116.05006 38134 ft 443 kts 192°
2026-05-04 10:13 30.31684 116.05005 38140 ft 443 kts 192°
2026-05-04 10:13 30.25502 116.05005 38137 ft 443 kts 192°
2026-05-04 10:14 30.19282 116.05003 38152 ft 443 kts 192°
2026-05-04 10:16 29.97758 116.04452 38128 ft 432 kts 199°
2026-05-04 10:16 29.94823 116.03932 38137 ft 426 kts 202°
2026-05-04 10:16 29.89005 116.02539 38137 ft 423 kts 204°
2026-05-04 10:17 29.83179 116.01112 38141 ft 423 kts 204°
2026-05-04 10:19 29.60118 115.95480 38148 ft 420 kts 204°
2026-05-04 10:19 29.54393 115.94087 38151 ft 420 kts 204°
2026-05-04 10:20 29.48659 115.92691 38153 ft 420 kts 204°
2026-05-04 10:20 29.42912 115.91295 38150 ft 420 kts 204°
2026-05-04 10:21 29.37195 115.89908 38147 ft 420 kts 203°
2026-05-04 10:21 29.31433 115.88512 38147 ft 421 kts 204°
2026-05-04 10:22 29.22797 115.86421 38153 ft 422 kts 203°
2026-05-04 10:23 29.17033 115.85183 38155 ft 429 kts 199°
2026-05-04 10:25 28.92186 115.88608 38170 ft 441 kts 192°
2026-05-04 10:25 28.89141 115.88381 38168 ft 427 kts 200°
2026-05-04 10:25 28.86254 115.87714 38168 ft 415 kts 207°
2026-05-04 10:26 28.81023 115.85268 38164 ft 396 kts 220°
2026-05-04 10:26 28.76451 115.81879 38164 ft 390 kts 224°
2026-05-04 10:27 28.71956 115.78413 38171 ft 391 kts 223°
2026-05-04 10:27 28.67442 115.74937 38167 ft 390 kts 223°
2026-05-04 10:28 28.62868 115.71556 38165 ft 394 kts 220°
2026-05-04 10:28 28.57975 115.68597 38144 ft 400 kts 216°
2026-05-04 10:29 28.52935 115.65859 38154 ft 400 kts 216°
2026-05-04 10:29 28.47903 115.63133 38157 ft 402 kts 216°
2026-05-04 10:30 28.42525 115.61036 38141 ft 417 kts 204°
2026-05-04 10:30 28.39594 115.60464 38151 ft 428 kts 198°
2026-05-04 10:30 28.36606 115.60257 38148 ft 437 kts 192°
2026-05-04 10:30 28.33520 115.60435 38147 ft 449 kts 186°
2026-05-04 10:31 28.30400 115.61033 38144 ft 458 kts 179°
2026-05-04 10:32 28.08750 115.68822 38149 ft 465 kts 174°
2026-05-04 10:33 28.02547 115.70817 38149 ft 454 kts 181°
2026-05-04 10:33 27.99448 115.71320 38148 ft 443 kts 187°
2026-05-04 10:33 27.96408 115.71460 38147 ft 434 kts 193°
2026-05-04 10:34 27.90529 115.70750 38152 ft 417 kts 203°
2026-05-04 10:34 27.85051 115.68921 38165 ft 406 kts 211°
2026-05-04 10:35 27.79695 115.66776 38168 ft 406 kts 211°
2026-05-04 10:35 27.74391 115.64645 38172 ft 406 kts 211°
2026-05-04 10:36 27.69045 115.62482 38172 ft 407 kts 211°
2026-05-04 10:36 27.63710 115.60326 38156 ft 406 kts 211°
2026-05-04 10:37 27.58362 115.58170 38153 ft 408 kts 211°
2026-05-04 10:37 27.53027 115.56018 38146 ft 408 kts 211°
2026-05-04 10:39 27.34258 115.48470 38142 ft 409 kts 211°
2026-05-04 10:40 27.28881 115.46314 38145 ft 409 kts 211°
2026-05-04 10:40 27.23520 115.44163 38147 ft 410 kts 211°
2026-05-04 10:41 27.18134 115.42007 38146 ft 410 kts 211°
2026-05-04 10:41 27.12750 115.39855 38147 ft 409 kts 211°
2026-05-04 10:42 27.07381 115.37707 38147 ft 411 kts 211°
2026-05-04 10:42 27.01974 115.35549 38152 ft 412 kts 211°
2026-05-04 10:43 26.96528 115.33376 38160 ft 413 kts 211°
2026-05-04 10:45 26.74851 115.24741 38161 ft 412 kts 210°
2026-05-04 10:45 26.69467 115.22591 38163 ft 412 kts 210°
2026-05-04 10:46 26.64043 115.20427 38168 ft 411 kts 210°
2026-05-04 10:46 26.58638 115.18270 38173 ft 413 kts 210°
2026-05-04 10:47 26.53225 115.16116 38182 ft 413 kts 210°
2026-05-04 10:47 26.47795 115.13955 38183 ft 413 kts 210°
2026-05-04 10:49 26.26081 115.05340 38173 ft 414 kts 210°
2026-05-04 10:50 26.20666 115.03198 38170 ft 414 kts 210°
2026-05-04 10:52 25.98872 114.94594 38186 ft 415 kts 209°
2026-05-04 10:52 25.93402 114.92440 38195 ft 414 kts 209°
2026-05-04 10:54 25.73773 114.85742 38198 ft 425 kts 203°
2026-05-04 10:54 25.70873 114.85019 38194 ft 426 kts 202°
2026-05-04 10:56 25.47681 114.79264 38184 ft 426 kts 202°
2026-05-04 10:57 25.41875 114.77827 38185 ft 427 kts 202°
2026-05-04 10:57 25.36025 114.76381 38183 ft 428 kts 202°
2026-05-04 10:58 25.30222 114.74950 38178 ft 428 kts 202°
2026-05-04 10:58 25.24369 114.73505 38179 ft 429 kts 202°
2026-05-04 10:59 25.18578 114.72079 38181 ft 429 kts 202°
2026-05-04 10:59 25.12767 114.70647 38186 ft 428 kts 202°
2026-05-04 11:00 25.06931 114.69212 38191 ft 428 kts 202°
2026-05-04 11:02 24.83446 114.63448 38198 ft 431 kts 202°
2026-05-04 11:05 24.43803 114.43603 38201 ft 415 kts 218°
2026-05-04 11:06 24.38784 114.40445 38199 ft 416 kts 218°
2026-05-04 11:06 24.33768 114.37300 38199 ft 416 kts 218°
2026-05-04 11:10 23.98195 114.15069 38224 ft 421 kts 217°
2026-05-04 11:12 23.77686 114.02307 38208 ft 421 kts 217°
2026-05-04 11:12 23.72610 113.99155 38203 ft 421 kts 217°
2026-05-04 11:13 23.67489 113.95979 38191 ft 421 kts 217°
2026-05-04 11:13 23.62396 113.92821 38186 ft 422 kts 217°
2026-05-04 11:14 23.57283 113.89659 38171 ft 422 kts 217°
2026-05-04 11:16 23.34784 113.80823 38161 ft 434 kts 203°
2026-05-04 11:16 23.28935 113.79060 38162 ft 435 kts 203°
2026-05-04 11:17 23.23080 113.77296 38155 ft 435 kts 203°
2026-05-04 11:19 22.99703 113.70276 38145 ft 435 kts 203°
2026-05-04 11:19 22.93852 113.68524 38147 ft 435 kts 203°
2026-05-04 11:20 22.87983 113.66764 38137 ft 435 kts 203°
2026-05-04 11:20 22.82145 113.64985 38134 ft 435 kts 203°
2026-05-04 11:22 22.62028 113.58855 34393 ft 425 kts 202°
2026-05-04 11:22 22.59189 113.57990 33656 ft 425 kts 202°
2026-05-04 11:23 22.56313 113.57117 32898 ft 424 kts 202°
2026-05-04 11:23 22.53465 113.56252 32166 ft 424 kts 202°
2026-05-04 11:24 22.36326 113.50992 27092 ft 433 kts 201°
2026-05-04 11:25 22.33425 113.50105 26125 ft 436 kts 201°
2026-05-04 11:25 22.30495 113.49207 25104 ft 441 kts 200°
2026-05-04 11:25 22.27514 113.48296 24235 ft 440 kts 200°
2026-05-04 11:26 22.21488 113.47445 22913 ft 444 kts 181°
2026-05-04 11:27 22.01396 113.54259 18992 ft 416 kts 165°
2026-05-04 11:28 21.98607 113.55309 18449 ft 427 kts 163°
2026-05-04 11:28 21.95848 113.56513 17884 ft 429 kts 161°
2026-05-04 11:28 21.93127 113.57762 17286 ft 425 kts 160°
2026-05-04 11:28 21.90411 113.59019 16646 ft 421 kts 160°
2026-05-04 11:29 21.87723 113.60263 16000 ft 418 kts 160°
2026-05-04 11:29 21.85067 113.61491 15352 ft 415 kts 160°
2026-05-04 11:29 21.82444 113.62701 14849 ft 405 kts 161°
2026-05-04 11:29 21.79868 113.63889 14414 ft 395 kts 161°
2026-05-04 11:31 21.69999 113.75661 12333 ft 325 kts 54°
2026-05-04 11:33 21.81320 113.86560 9831 ft 303 kts 40°
2026-05-04 11:33 21.82880 113.88088 9472 ft 301 kts 40°
2026-05-04 11:33 21.84580 113.89356 9072 ft 295 kts 18°
2026-05-04 11:34 21.86578 113.89578 8702 ft 284 kts 347°
2026-05-04 11:34 21.88428 113.88882 8385 ft 276 kts 332°
2026-05-04 11:34 21.90156 113.88016 8106 ft 271 kts 332°
2026-05-04 11:34 21.91884 113.87141 7787 ft 269 kts 332°
2026-05-04 11:35 21.93566 113.86290 7457 ft 267 kts 332°
2026-05-04 11:35 21.95236 113.85446 7123 ft 266 kts 332°
2026-05-04 11:35 21.96923 113.84596 6776 ft 264 kts 333°
2026-05-04 11:35 21.98580 113.83761 6436 ft 263 kts 333°
2026-05-04 11:36 22.00245 113.82924 6106 ft 261 kts 333°
2026-05-04 11:36 22.01885 113.82098 5760 ft 260 kts 333°
2026-05-04 11:36 22.03533 113.81266 5411 ft 259 kts 334°
2026-05-04 11:36 22.05158 113.80446 5059 ft 259 kts 334°
2026-05-04 11:37 22.06798 113.79617 4703 ft 259 kts 335°
2026-05-04 11:37 22.08435 113.78793 4345 ft 260 kts 336°
2026-05-04 11:37 22.10077 113.77966 3992 ft 260 kts 336°
2026-05-04 11:37 22.11766 113.77115 3635 ft 259 kts 337°
2026-05-04 11:38 22.13391 113.76298 3483 ft 249 kts 337°
2026-05-04 11:38 22.14913 113.75530 3434 ft 235 kts 337°
2026-05-04 11:38 22.16363 113.74799 3383 ft 221 kts 337°
2026-05-04 11:38 22.17719 113.74114 3331 ft 211 kts 338°
2026-05-04 11:39 22.19022 113.73457 3263 ft 203 kts 338°
2026-05-04 11:39 22.20319 113.72804 3140 ft 203 kts 338°
2026-05-04 11:40 22.26836 113.74161 2026 ft 161 kts 49°
2026-05-04 11:41 22.27519 113.75018 1992 ft 140 kts 58°
2026-05-04 11:41 22.27992 113.75890 1992 ft 133 kts 65°
2026-05-04 11:41 22.28382 113.76802 2013 ft 133 kts 68°
2026-05-04 11:41 22.28747 113.77736 1965 ft 133 kts 70°
2026-05-04 11:42 22.29078 113.78670 1796 ft 132 kts 71°
2026-05-04 11:42 22.29387 113.79597 1664 ft 132 kts 71°
2026-05-04 11:42 22.29690 113.80534 1482 ft 132 kts 71°
2026-05-04 11:42 22.29991 113.81471 1314 ft 131 kts 72°
2026-05-04 11:43 22.30287 113.82398 1132 ft 129 kts 72°
2026-05-04 11:43 22.30581 113.83317 963 ft 129 kts 71°
2026-05-04 11:43 22.30872 113.84225 797 ft 128 kts 70°
2026-05-04 11:43 22.31164 113.85132 636 ft 128 kts 71°
2026-05-04 11:44 22.31458 113.86044 472 ft 128 kts 72°
2026-05-04 11:44 22.31751 113.86955 306 ft 127 kts 70°
2026-05-04 11:44 22.32031 113.87848 138 ft 126 kts 71°
2026-05-04 11:44 22.32313 113.88736 37 ft 115 kts 71°
2026-05-04 11:45 22.32542 113.89414 36 ft 71 kts 71°
2026-05-04 11:45 22.32663 113.89789 36 ft 44 kts 71°
2026-05-04 11:45 22.32700 113.89960 36 ft 10 kts 82°
2026-05-04 11:45 22.32701 113.90041 36 ft 11 kts 93°
2026-05-04 11:46 22.32690 113.90131 36 ft 12 kts 100°
2026-05-04 11:46 22.32663 113.90221 36 ft 13 kts 126°
2026-05-04 11:46 22.32588 113.90284 36 ft 14 kts 155°
2026-05-04 11:46 22.32494 113.90321 36 ft 14 kts 161°
2026-05-04 11:47 22.32394 113.90358 35 ft 15 kts 160°
2026-05-04 11:47 22.32290 113.90398 36 ft 16 kts 161°
2026-05-04 11:47 22.32184 113.90437 36 ft 16 kts 161°
2026-05-04 11:47 22.32073 113.90477 36 ft 16 kts 161°
2026-05-04 11:48 22.31960 113.90519 36 ft 17 kts 161°
2026-05-04 11:48 22.31845 113.90562 36 ft 17 kts 160°
2026-05-04 11:48 22.31730 113.90606 36 ft 15 kts 161°
2026-05-04 11:48 22.31665 113.90624 36 ft 9 kts 181°
2026-05-04 11:49 22.31611 113.90578 36 ft 11 kts 243°
2026-05-04 11:49 22.31583 113.90494 36 ft 12 kts 251°
2026-05-04 11:49 22.31553 113.90402 36 ft 13 kts 251°
2026-05-04 11:49 22.31521 113.90303 36 ft 14 kts 251°
2026-05-04 11:50 22.31488 113.90199 36 ft 15 kts 251°
2026-05-04 11:50 22.31452 113.90089 36 ft 15 kts 250°
2026-05-04 11:50 22.31416 113.89977 36 ft 16 kts 251°
2026-05-04 11:50 22.31379 113.89861 36 ft 16 kts 251°
2026-05-04 11:51 22.31350 113.89792 36 ft 6 kts 224°
2026-05-04 11:51 22.31298 113.89787 36 ft 8 kts 167°
2026-05-04 11:51 22.31235 113.89804 36 ft 10 kts 163°
2026-05-04 11:51 22.31165 113.89830 36 ft 11 kts 160°
2026-05-04 11:52 22.31086 113.89861 36 ft 12 kts 160°
2026-05-04 11:52 22.31002 113.89893 36 ft 13 kts 160°
2026-05-04 11:52 22.30916 113.89927 36 ft 8 kts 160°
2026-05-04 11:52 22.30878 113.89973 36 ft 9 kts 96°
2026-05-04 11:53 22.30895 113.90048 36 ft 10 kts 71°
2026-05-04 11:53 22.30922 113.90129 36 ft 12 kts 71°
2026-05-04 11:53 22.30950 113.90218 36 ft 13 kts 71°
2026-05-04 11:53 22.30981 113.90314 36 ft 13 kts 71°
2026-05-04 11:55 22.31231 113.91087 36 ft 16 kts 71°
2026-05-04 11:55 22.31269 113.91209 36 ft 17 kts 71°
2026-05-04 11:56 22.31308 113.91331 36 ft 17 kts 71°
2026-05-04 11:56 22.31349 113.91455 36 ft 17 kts 71°
2026-05-04 11:56 22.31389 113.91580 36 ft 17 kts 71°
2026-05-04 11:56 22.31430 113.91706 36 ft 17 kts 71°
2026-05-04 11:57 22.31471 113.91834 36 ft 18 kts 71°
2026-05-04 11:57 22.31507 113.91948 36 ft 11 kts 71°
2026-05-04 11:57 22.31527 113.92017 36 ft 8 kts 85°
2026-05-04 11:57 22.31494 113.92069 36 ft 9 kts 154°
2026-05-04 11:58 22.31428 113.92103 36 ft 11 kts 134°
2026-05-04 11:58 22.31391 113.92181 36 ft 12 kts 115°
2026-05-04 11:58 22.31353 113.92266 36 ft 13 kts 116°
2026-05-04 11:58 22.31322 113.92335 36 ft 9 kts 116°
2026-05-04 11:59 22.31296 113.92373 36 ft 5 kts 158°
2026-05-04 11:59 22.31253 113.92366 36 ft 7 kts 200°
2026-05-04 11:59 22.31219 113.92347 36 ft 0 kts 205°